This is the latest recevied weather packets stored in our database for station/object HEBOWX. If no packets are shown the sender has not sent any weather packets the latest 10 day(s).
| Time | Temp. | Humidity | Pressure | Rain* | Wind** | Luminosity | Snow |
|---|---|---|---|---|---|---|---|
| 1778043030 | 12.22° C | 63% | 1013.6 hPa | 0 mm | - | - | - |
| 1778042730 | 12.22° C | 63% | 1013.6 hPa | 0 mm | - | - | - |
| 1778042431 | 12.22° C | 62% | 1013.6 hPa | 0 mm | - | - | - |
| 1778042130 | 12.22° C | 62% | 1013.5 hPa | 0 mm | - | - | - |
| 1778041830 | 12.22° C | 63% | 1013.5 hPa | 0 mm | - | - | - |
| 1778041531 | 12.22° C | 63% | 1013.5 hPa | 0 mm | - | - | - |
| 1778041231 | 12.22° C | 62% | 1013.4 hPa | 0 mm | - | - | - |
| 1778040930 | 12.22° C | 62% | 1013.3 hPa | 0 mm | - | - | - |
| 1778040630 | 12.22° C | 62% | 1013.3 hPa | 0 mm | - | - | - |
| 1778040332 | 12.22° C | 61% | 1013.3 hPa | 0 mm | - | - | - |
| 1778040030 | 12.78° C | 61% | 1013.3 hPa | 0 mm | - | - | - |
| 1778039730 | 12.78° C | 60% | 1013.3 hPa | 0 mm | - | - | - |
| 1778039432 | 12.78° C | 61% | 1013.1 hPa | 0 mm | - | - | - |
| 1778039131 | 12.78° C | 65% | 1013.1 hPa | 0 mm | - | - | - |
| 1778038830 | 12.78° C | 63% | 1013 hPa | 0 mm | - | - | - |
| 1778038530 | 12.78° C | 63% | 1013 hPa | 0 mm | - | - | - |
| 1778038233 | 12.78° C | 62% | 1012.8 hPa | 0 mm | - | - | - |
| 1778037931 | 12.78° C | 62% | 1012.8 hPa | 0 mm | - | - | - |
| 1778037630 | 12.78° C | 62% | 1012.7 hPa | 0 mm | - | - | - |
| 1778037330 | 12.78° C | 61% | 1012.6 hPa | 0 mm | - | - | - |
| 1778037034 | 12.78° C | 62% | 1012.6 hPa | 0 mm | - | - | - |
| 1778036731 | 13.33° C | 61% | 1012.6 hPa | 0 mm | - | - | - |
| 1778036430 | 13.33° C | 1% | 1012.6 hPa | 0 mm | - | - | - |
| 1778036130 | 13.33° C | 60% | 1012.5 hPa | 0 mm | - | - | - |
| 1778035832 | 13.33° C | 59% | 1012.6 hPa | 0 mm | - | - | - |
* Rain latest hour (hover to see other rain measurements)
** Current wind speed in m/s (hover to see current wind gust speed)